Voltar ao catálogo

YAOGAN 16A

AtivoMilitarLEO
NORAD 39011·PAYLOAD·🇨🇳 China

Lançado Nov 25, 2012 de Jiuquan Satellite Launch Center

Loading…

Próximas Passagens (próximas 24 horas)

TLE

AtualizadoSource: Space-Track

Época: Sep 14, 2026, 10:31 UTC

1 39011U 12066A   26257.43883906 -.00000076  00000-0  13653-4 0  9998
2 39011  63.3521  59.2592 0442623  27.9025 334.4993 13.45521761678151

Acompanhe YAOGAN 16A em tempo real com AllMySat

Download on the App Store